Lexington Weather

Lexington, Massachusetts, USA

53°F
12/10/2019 5:35pm 
  • Lexington Conditions: Overcast
  • Temperature: 53.4°F / 11.9°CColder 0.6°F than last hour.
  • Dew Point: 52.0°FDecreased 0.5°Fsince last hour.
  • Relative Humidity: 95
  • Wind: Wind from SW SW 4 mph, 10-min avg: 5 mph, gust: 13 mph
  • Barometer: 29.76 inRising 0.05  inHg/hr Rising Slowly
  • Visibility: 10 miles
  • Rain Today: 0.05 in
  •   

Regional Weather Roundup
for Boston / Norton, MA

        
000
ASUS41 KBOX 101310
RWRBOX

REGIONAL WEATHER ROUNDUP
NATIONAL WEATHER SERVICE BOSTON/NORTON MA
800 AM EST TUE DEC 10 2019

NOTE:  "FAIR" INDICATES FEW OR NO CLOUDS BELOW 12,000 FEET WITH NO 
SIGNIFICANT WEATHER AND/OR OBSTRUCTIONS TO VISIBILITY.

MAZALL-101400-
EASTERN MASSACHUSETTS
  
CITY           SKY/WX    TMP DP  RH WIND       PRES   REMARKS
BOSTON         MOCLDY    58  51  78 SW13      29.72F                  
BEVERLY        FAIR      56  51  84 SW10      29.70F                  
LAWRENCE       MOCLDY    53  50  89 SW8       29.72S                  
BEDFORD        MOCLDY    55  50  83 SW13      29.71S                  
BLUE HILL        N/A     54  52  93 SW17      29.72S                  
NORWOOD        FAIR      59  52  77 SW10      29.73S                  
MARSHFIELD     MOCLDY    57  55  94 SW10G21   29.74S                  
PLYMOUTH       CLOUDY    56  53  90 SW12G23   29.77R                  
TAUNTON        FAIR      56  52  86 SW10      29.77R                  
NEW BEDFORD    CLOUDY    56  53  90 SW16      29.78R                  
$$

MAZALL-101400-
CAPE COD AND THE ISLANDS
  
CITY           SKY/WX    TMP DP  RH WIND       PRES   REMARKS
FALMOUTH       CLOUDY    55  55 100 SW22G35   29.80R FOG              
HYANNIS        CLOUDY    55  52  89 S14       29.79R                  
CHATHAM        FOG       51  51 100 SW12G21   29.83R VSB 1/2          
PROVINCETOWN   FAIR      52  51  97 SW20G26   29.78R FOG              
NANTUCKET      CLOUDY    53  51  93 SW18      29.84R FOG              
MARTHAS VNYRD  CLOUDY    54  53  97 SW12      29.82R FOG              
$$
 
MAZALL-101400-
CENTRAL AND WESTERN MASSACHUSETTS
  
CITY           SKY/WX    TMP DP  RH WIND       PRES   REMARKS
WORCESTER      CLOUDY    51  49  92 SW20G26   29.72F                  
FITCHBURG      FAIR      54  47  77 VRB5      29.71S                  
ORANGE         MOCLDY    52  47  83 S9        29.72R                  
SPRINGFIELD    CLOUDY    49  49 100 S12       29.72S                  
WESTFIELD      CLOUDY    49  47  93 S8        29.73S                  
NORTH ADAMS    CLOUDY    42  41  96 CALM      29.69S FOG              
PITTSFIELD     CLOUDY    50  46  86 SW15G23   29.69S                  
$$
 
RIZALL-101400-
RHODE ISLAND
  
CITY           SKY/WX    TMP DP  RH WIND       PRES   REMARKS
PROVIDENCE     MOCLDY    57  54  89 SW13      29.78R                  
NEWPORT        CLOUDY    54  52  93 S8        29.79R FOG              
BLOCK ISLAND   CLOUDY    53  52  96 SW12      29.81R FOG              
SMITHFIELD     CLOUDY    55  53  93 SW7       29.76R                  
WESTERLY       CLOUDY    54  50  86 SW3       29.81S FOG              
$$
 
CTZALL-101400-
CONNECTICUT
  
CITY           SKY/WX    TMP DP  RH WIND       PRES   REMARKS
BRADLEY INTL   CLOUDY    48  47  96 S9        29.74R FOG              
HARTFORD       MOCLDY    54  51  90 S7        29.75S                  
BRIDGEPORT     MOCLDY    51  49  92 SW7       29.78R                  
DANBURY        MOCLDY    54  50  86 SW14G20   29.77R                  
GROTON         MOCLDY    51  51 100 SW10      29.79R FOG              
NEW HAVEN      FAIR      54  51  90 SW5       29.77S FOG              
CHESTER        CLOUDY    55  54  94 VRB7G14   29.77F FOG              
MERIDEN        CLOUDY    53  51  93 S8        29.76S                  
WILLIMANTIC    CLOUDY    56  53  90 SW3       29.78R                  
OXFORD         CLOUDY    53  51  93 SW6       29.77S                  
$$

MEZ002-015-021-024-NHZ003-005-008-011-012-014-VTZ005-008-101400-
NORTHERN NEW ENGLAND
  
CITY           SKY/WX    TMP DP  RH WIND       PRES   REMARKS
PORTLAND ME    CLOUDY    53  48  83 SW8       29.67S                  
BANGOR ME      CLOUDY    52  50  93 SW8       29.62R                  
CONCORD NH     FAIR      50  46  86 S8        29.67S                  
MANCHESTER NH  CLOUDY    49  46  90 S6        29.68S                  
NASHUA NH      FAIR      52  50  93 VRB3      29.70R                  
PORTSMOUTH NH  MOCLDY    51  50  99 S6        29.68S                  
JAFFREY NH     CLOUDY    48  46  93 S7        29.70F                  
KEENE NH       CLOUDY    46  45  96 S3        29.70S                  
BURLINGTON VT  MOCLDY    50  45  83 S13       29.57R                  
MT. WASHINGTON FOG       34  34 100 W62G70      N/A  VSB 0   WCI  15  
$$

NYZ052-076-101400-
EASTERN NEW YORK
  
CITY           SKY/WX    TMP DP  RH WIND       PRES   REMARKS
ALBANY         CLOUDY    49  45  86 S13       29.70R                  
NEW YORK CITY  CLOUDY    57  51  80 SW9       29.78R                  
$$
 
ANZALL-101400-
MARINE OBSERVATIONS
  
STATION/POSITION TIME  TEMP    WIND        PRES    VSBY  WAVE
                       AIR SEA DIR/SP/G                  HT/PER
                 (UTC) (F)     (DEG/KT/KT) (MB)    (MI)  (FT/S)
BOSTON BUOY      1250   52 48  210/ 10/ 10 1005.9F         3/ 8
BUZZARDS BAY     1200   53     220/ 18/ 19 1008.9F
NANTUCKET SOUND  1250   47 44                N/A           2/ 3
MASS BAY-STELLWA 1204   49 46  220/ 10/ 10 1004.7R  1 7/8  5/ 8
ISLE OF SHOALS   1200   53     220/ 21/ 22 1005.3R
S OF BLOCK IS    1300      53                N/A          13/11
$$

......................KEY.........................
  SKY/WX - SKY CONDITION/PRESENT WEATHER
  TMP    - TEMPERATURE IN FAHRENHEIT
  DWPT   - DEWPOINT IN FAHRENHEIT
  RH     - RELATIVE HUMIDITY IN PERCENT
  WIND   - DIRECTION AND SPEED IN MPH
  PRES   - MEAN SEA LEVEL PRESSURE IN INCHES OF HG
  WCI    - WIND CHILL INDEX
  VSB    - VISIBILITY IN MILES
  HX     - HEAT INDEX
  TC     - TEMPERATURE IN CELSIUS
  VRB    - VARIABLE WIND DIRECTION
  N/A    - NOT AVAILABLE
  
      

Other recent Regional Weather Roundups

Tue Dec 10, 5:00pm

Tue Dec 10, 4:10pm

Tue Dec 10, 4:01pm

Tue Dec 10, 3:10pm

Tue Dec 10, 3:01pm

Tue Dec 10, 2:10pm

Tue Dec 10, 2:01pm

Tue Dec 10, 1:10pm

Tue Dec 10, 1:00pm

Tue Dec 10, 12:10pm

Tue Dec 10, 12:00pm

Tue Dec 10, 11:10am

Tue Dec 10, 11:00am

Tue Dec 10, 10:10am

Tue Dec 10, 10:00am

Tue Dec 10, 9:10am

Tue Dec 10, 9:01am

Tue Dec 10, 8:00am

Tue Dec 10, 7:10am

Tue Dec 10, 7:00am

Tue Dec 10, 6:10am

Tue Dec 10, 6:00am

Tue Dec 10, 5:10am

Tue Dec 10, 5:00am

Tue Dec 10, 4:10am

Tue Dec 10, 4:00am

Tue Dec 10, 3:10am

Tue Dec 10, 3:00am

Tue Dec 10, 2:10am

Tue Dec 10, 2:01am

Tue Dec 10, 1:10am

Tue Dec 10, 1:00am

Tue Dec 10, 12:10am

Tue Dec 10, 12:01am

Mon Dec 9, 11:10pm

Mon Dec 9, 11:01pm

Mon Dec 9, 10:10pm

Mon Dec 9, 10:00pm

Mon Dec 9, 9:10pm

Mon Dec 9, 9:01pm

Mon Dec 9, 8:10pm

Mon Dec 9, 8:01pm

Mon Dec 9, 7:10pm

Mon Dec 9, 7:00pm

Mon Dec 9, 6:10pm

Mon Dec 9, 6:00pm

Mon Dec 9, 5:10pm

Mon Dec 9, 5:01pm

Mon Dec 9, 4:10pm

Mon Dec 9, 4:01pm

Mon Dec 9, 3:10pm

Mon Dec 9, 3:01pm

Mon Dec 9, 2:10pm

Mon Dec 9, 2:00pm

Mon Dec 9, 1:10pm

Mon Dec 9, 1:00pm

Mon Dec 9, 12:10pm

Mon Dec 9, 12:00pm

Mon Dec 9, 11:10am

Mon Dec 9, 11:00am

Mon Dec 9, 10:10am

Mon Dec 9, 10:00am

Mon Dec 9, 9:10am

Mon Dec 9, 9:00am

Mon Dec 9, 8:10am

Mon Dec 9, 8:00am

Mon Dec 9, 7:10am

Mon Dec 9, 7:00am

Mon Dec 9, 6:10am

Mon Dec 9, 6:00am

Mon Dec 9, 5:10am

Mon Dec 9, 5:00am

Mon Dec 9, 4:10am

Mon Dec 9, 4:00am

Mon Dec 9, 3:10am

Mon Dec 9, 3:00am

Mon Dec 9, 2:10am

Mon Dec 9, 2:00am

Mon Dec 9, 1:10am

Mon Dec 9, 1:00am

Mon Dec 9, 12:10am

Mon Dec 9, 12:00am

Sun Dec 8, 11:10pm

Sun Dec 8, 11:00pm

Sun Dec 8, 10:10pm

Sun Dec 8, 10:01pm

Sun Dec 8, 9:10pm

Sun Dec 8, 9:01pm

Sun Dec 8, 8:10pm

Sun Dec 8, 8:00pm

Sun Dec 8, 7:10pm

Sun Dec 8, 7:00pm

Sun Dec 8, 6:10pm

Sun Dec 8, 6:01pm

Sun Dec 8, 5:10pm

Sun Dec 8, 5:00pm

Sun Dec 8, 4:10pm

Sun Dec 8, 4:01pm

Sun Dec 8, 3:10pm

Sun Dec 8, 3:01pm

Sun Dec 8, 2:10pm

Sun Dec 8, 2:01pm

Sun Dec 8, 1:10pm

Sun Dec 8, 1:00pm

Sun Dec 8, 12:10pm

Sun Dec 8, 12:01pm

Sun Dec 8, 11:10am

Sun Dec 8, 11:00am

Sun Dec 8, 10:10am

Sun Dec 8, 10:01am

Sun Dec 8, 9:10am

Sun Dec 8, 9:00am

Sun Dec 8, 8:10am

Sun Dec 8, 8:00am

Sun Dec 8, 7:10am

Sun Dec 8, 7:00am

Sun Dec 8, 6:10am

Sun Dec 8, 6:00am

Sun Dec 8, 5:10am

Sun Dec 8, 5:00am

Sun Dec 8, 4:10am

Sun Dec 8, 4:00am

Sun Dec 8, 3:10am

Sun Dec 8, 3:00am

Sun Dec 8, 2:10am

Sun Dec 8, 2:00am

Sun Dec 8, 1:10am

Sun Dec 8, 1:00am

Sun Dec 8, 12:10am

Sun Dec 8, 12:01am

Sat Dec 7, 11:10pm

Sat Dec 7, 11:00pm

Sat Dec 7, 10:10pm

Sat Dec 7, 10:00pm

Sat Dec 7, 9:10pm

Sat Dec 7, 9:00pm

Sat Dec 7, 8:10pm

Sat Dec 7, 8:00pm

Sat Dec 7, 7:10pm

Sat Dec 7, 7:00pm

Sat Dec 7, 6:10pm

Sat Dec 7, 6:00pm

Meta data:

ID: ce5058b5-2d1c-4a09-ae50-a8276b20ef19
Link: https://api.weather.gov/products/ce5058b5-2d1c-4a09-ae50-a8276b20ef19